Weather History for KBGE - August, 2014

Change the Weather History Date:

Thursday, August 21, 2014

  Actual Average (KMAI) Record (KMAI)
Temperature  
Mean Temperature 88 °F 81 °F  
Max Temperature 100 °F 91 °F 100 °F (2011)
Min Temperature 77 °F 72 °F 70 °F (1997)
Degree Days  
Heating Degree Days 0    
Month to date heating degree days  
Since 1 June heating degree days  
Since 1 July heating degree days  
Cooling Degree Days 24    
Month to date cooling degree days  
Year to date cooling degree days  
Since 1 June cooling degree days  
Growing Degree Days 38 (Base 50)    
Moisture  
Dew Point 75 °F    
Average Humidity 75    
Maximum Humidity 94    
Minimum Humidity 39    
Precipitation  
Precipitation 0.00 in 0.16 in 1.12 in (2013)
Month to date precipitation 4.06  
Year to date precipitation 36.96  
Sea Level Pressure  
Sea Level Pressure 30.10 in    
Wind  
Wind Speed 2 mph (WNW)    
Max Wind Speed 22 mph    
Max Gust Speed 26 mph    
Visibility 10 miles    
Events Rain , Thunderstorm    
T = Trace of Precipitation, MM = Missing Value Source: NWS Daily Summary

Daily Weather History Graph

Daily Weather History Graph

Search for Another Location

Airport or City:

Trip Planner

Search our weather history database for the weather conditions in past years. The results will help you decide how hot, cold, wet, or windy it might be!

Date:

Astronomy

Aug. 21, 2014 Rise Set
Actual Time 7:08 AM EDT 8:14 PM EDT
Civil Twilight 6:43 AM EDT 8:39 PM EDT
Nautical Twilight 6:13 AM EDT 9:09 PM EDT
Astronomical Twilight 5:42 AM EDT 9:40 PM EDT
Moon 3:44 AM EDT (8/21) 5:37 PM EDT (8/21)
Length of Visible Light 13h 56m
Length of Day
13h 06m
Waning Crescent, 13% of the Moon is Illuminated
Aug 21
Waning Crescent
Aug 25
New
Sep 2
First Quarter
Sep 8
Full
Sep 15
Last Quarter

Hourly Weather History & Observations

Time (EDT) Temp. Heat Index Dew Point Humidity Pressure Visibility Wind Dir Wind Speed Gust Speed Precip Events Conditions
12:15 AM 78.8 °F - 73.4 °F 83% 30.11 in 10.0 mi Calm Calm - N/A   Clear
12:35 AM 78.8 °F - 73.4 °F 83% 30.12 in 10.0 mi Calm Calm - N/A   Clear
12:55 AM 78.8 °F - 73.4 °F 83% 30.12 in 10.0 mi Calm Calm - N/A   Clear
1:15 AM 78.8 °F - 75.2 °F 89% 30.12 in 10.0 mi Calm Calm - N/A   Clear
1:35 AM 78.8 °F - 75.2 °F 89% 30.11 in 10.0 mi Calm Calm - N/A   Clear
1:55 AM 78.8 °F - 75.2 °F 89% 30.10 in 10.0 mi Calm Calm - N/A   Clear
2:15 AM 78.8 °F - 75.2 °F 89% 30.10 in 10.0 mi Calm Calm - N/A   Clear
2:35 AM 77.0 °F - 73.4 °F 89% 30.09 in 10.0 mi SSW 3.5 mph - N/A   Clear
2:55 AM 77.0 °F - 73.4 °F 89% 30.08 in 10.0 mi SSW 3.5 mph - N/A   Clear
3:15 AM 77.0 °F - 73.4 °F 89% 30.07 in 10.0 mi SW 3.5 mph - N/A   Clear
3:35 AM 77.0 °F - 73.4 °F 89% 30.07 in 10.0 mi Calm Calm - N/A   Clear
3:55 AM 77.0 °F - 73.4 °F 89% 30.07 in 10.0 mi SSW 3.5 mph - N/A   Clear
4:15 AM 77.0 °F - 73.4 °F 89% 30.07 in 10.0 mi Calm Calm - N/A   Clear
4:35 AM 77.0 °F - 73.4 °F 89% 30.07 in 7.0 mi Calm Calm - N/A   Clear
4:55 AM 77.0 °F - 73.4 °F 89% 30.07 in 7.0 mi Calm Calm - N/A   Clear
5:15 AM 77.0 °F - 73.4 °F 89% 30.07 in 7.0 mi Calm Calm - N/A   Clear
5:35 AM 77.0 °F - 73.4 °F 89% 30.08 in 7.0 mi Calm Calm - N/A   Clear
6:15 AM 78.8 °F - 77.0 °F 94% 30.10 in 10.0 mi Calm Calm - N/A   Clear
6:35 AM 77.0 °F - 73.4 °F 89% 30.11 in 10.0 mi Calm Calm - N/A   Clear
6:55 AM 77.0 °F - 73.4 °F 89% 30.11 in 7.0 mi Calm Calm - N/A   Clear
7:15 AM 77.0 °F - 73.4 °F 89% 30.12 in 5.0 mi Calm Calm - N/A   Clear
7:35 AM 77.0 °F - 73.4 °F 89% 30.13 in 5.0 mi Calm Calm - N/A   Clear
7:55 AM 77.0 °F - 75.2 °F 94% 30.14 in 5.0 mi Calm Calm - N/A   Clear
8:15 AM 78.8 °F - 77.0 °F 94% 30.14 in 10.0 mi Calm Calm - N/A   Clear
8:35 AM 78.8 °F - 75.2 °F 89% 30.15 in 10.0 mi Calm Calm - N/A   Clear
8:55 AM 80.6 °F 87.1 °F 77.0 °F 89% 30.15 in 10.0 mi Calm Calm - N/A   Clear
9:15 AM 82.4 °F 89.5 °F 75.2 °F 79% 30.15 in 10.0 mi Calm Calm - N/A   Clear
9:35 AM 84.2 °F 94.1 °F 77.0 °F 79% 30.15 in 10.0 mi Calm Calm - N/A   Clear
9:55 AM 86.0 °F 96.9 °F 77.0 °F 74% 30.15 in 10.0 mi Calm Calm - N/A   Clear
10:15 AM 87.8 °F 99.7 °F 77.0 °F 70% 30.15 in 10.0 mi West 5.8 mph - N/A   Clear
10:35 AM 87.8 °F 99.7 °F 77.0 °F 70% 30.15 in 10.0 mi West 5.8 mph - N/A   Clear
10:55 AM 89.6 °F 102.2 °F 77.0 °F 66% 30.15 in 10.0 mi Calm Calm - N/A   Clear
11:15 AM 93.2 °F 110.2 °F 78.8 °F 63% 30.15 in 10.0 mi WNW 6.9 mph - N/A   Clear
11:35 AM 95.0 °F 112.2 °F 78.8 °F 59% 30.14 in 10.0 mi WNW 5.8 mph - N/A   Clear
12:15 PM 95.0 °F 109.7 °F 77.0 °F 56% 30.14 in 10.0 mi West 4.6 mph - N/A   Clear
12:35 PM 95.0 °F 109.7 °F 77.0 °F 56% 30.13 in 10.0 mi West 8.1 mph - N/A   Clear
12:55 PM 96.8 °F 112.2 °F 77.0 °F 53% 30.13 in 10.0 mi West 5.8 mph - N/A   Clear
1:15 PM 95.0 °F 107.4 °F 75.2 °F 53% 30.12 in 10.0 mi West 4.6 mph - N/A   Clear
1:35 PM 95.0 °F 104.5 °F 73.4 °F 49% 30.12 in 10.0 mi WNW 5.8 mph - N/A   Clear
1:55 PM 95.0 °F 104.5 °F 73.4 °F 49% 30.12 in 10.0 mi Calm Calm - N/A   Clear
2:15 PM 96.8 °F 109.6 °F 75.2 °F 50% 30.11 in 10.0 mi NNW 5.8 mph - N/A   Clear
2:35 PM 98.6 °F 111.7 °F 75.2 °F 47% 30.11 in 10.0 mi WSW 4.6 mph - N/A   Clear
2:55 PM 98.6 °F 109.2 °F 73.4 °F 44% 30.09 in 10.0 mi NW 3.5 mph - N/A   Clear
3:15 PM 98.6 °F 111.7 °F 75.2 °F 47% 30.08 in 10.0 mi WNW 4.6 mph - N/A   Clear
3:35 PM 98.6 °F 109.2 °F 73.4 °F 44% 30.08 in 10.0 mi West 4.6 mph - N/A   Clear
3:55 PM 98.6 °F 111.7 °F 75.2 °F 47% 30.05 in 10.0 mi NNW 8.1 mph - N/A   Clear
4:15 PM 98.6 °F 109.2 °F 73.4 °F 44% 30.06 in 10.0 mi WNW 5.8 mph - N/A   Clear
4:35 PM 98.6 °F 109.2 °F 73.4 °F 44% 30.07 in 10.0 mi NW 8.1 mph - N/A Thunderstorm Thunderstorm
4:55 PM 100.4 °F 109.3 °F 71.6 °F 39% 30.06 in 10.0 mi WNW 5.8 mph - N/A   Clear
5:15 PM 98.6 °F 109.2 °F 73.4 °F 44% 30.07 in 10.0 mi NE 21.9 mph 26.5 mph N/A   Scattered Clouds
5:55 PM 84.2 °F 92.3 °F 75.2 °F 74% 30.08 in 10.0 mi NE 8.1 mph - N/A Rain , Thunderstorm Light Thunderstorms and Rain
6:15 PM 84.2 °F 89.6 °F 71.6 °F 66% 30.09 in 10.0 mi NE 9.2 mph - N/A Thunderstorm Scattered Clouds
6:35 PM 84.2 °F 89.6 °F 71.6 °F 66% 30.08 in 10.0 mi North 5.8 mph - N/A Thunderstorm Clear
6:55 PM 84.2 °F 89.6 °F 71.6 °F 66% 30.08 in 10.0 mi Calm Calm - N/A   Clear
7:15 PM 84.2 °F 92.3 °F 75.2 °F 74% 30.07 in 10.0 mi Calm Calm - N/A   Clear
7:35 PM 84.2 °F 89.6 °F 71.6 °F 66% 30.08 in 10.0 mi NNE 4.6 mph - N/A   Clear
7:55 PM 84.2 °F 90.9 °F 73.4 °F 70% 30.07 in 10.0 mi West 4.6 mph - N/A   Clear
8:15 PM 80.6 °F 87.1 °F 77.0 °F 89% 30.08 in 10.0 mi SE 3.5 mph - N/A   Clear
8:35 PM 80.6 °F 87.1 °F 77.0 °F 89% 30.08 in 10.0 mi Calm Calm - N/A   Clear
8:55 PM 80.6 °F 87.1 °F 77.0 °F 89% 30.08 in 10.0 mi Calm Calm - N/A   Clear
9:15 PM 80.6 °F 87.1 °F 77.0 °F 89% 30.09 in 10.0 mi Calm Calm - N/A   Clear
9:35 PM 80.6 °F 87.1 °F 77.0 °F 89% 30.11 in 10.0 mi Calm Calm - N/A   Clear
9:55 PM 78.8 °F - 77.0 °F 94% 30.11 in 10.0 mi Calm Calm - N/A   Clear
10:35 PM 78.8 °F - 75.2 °F 89% 30.12 in 10.0 mi Calm Calm - N/A   Clear
10:55 PM 78.8 °F - 77.0 °F 94% 30.13 in 10.0 mi Calm Calm - N/A   Clear
11:15 PM 78.8 °F - 77.0 °F 94% 30.12 in 10.0 mi Calm Calm - N/A   Clear
11:35 PM 78.8 °F - 77.0 °F 94% 30.12 in 10.0 mi Calm Calm - N/A   Clear